GFSMW_700_rhum_000.txt.gz
RH
44 43 39 39 29 27 25 25 27 26 36 42 40 31 27 28 32 33 32 31 32 35 44 45 39 32 19 4 5 9 9 8 7 6 6 5 7 7 8 8 7 7 6
48 46 40 38 28 30 26 29 31 42 43 37 30 29 31 34 34 33 32 34 42 48 46 40 29 11 4 8 10 10 8 7 7 8 8 8 9 8 9 9 8 8 7
49 48 44 37 34 34 38 43 44 41 33 30 30 33 34 31 30 34 43 50 51 49 42 28 12 6 8 10 10 10 10 8 7 7 8 8 10 11 10 9 9 9 9
54 52 49 40 38 41 45 43 38 33 32 32 34 32 27 35 42 46 50 53 50 41 28 15 8 7 8 10 10 10 10 9 8 8 8 9 9 9 10 10 10 10 10
55 53 49 46 40 44 43 38 34 33 34 34 28 32 38 42 45 49 49 44 36 28 18 10 7 7 8 10 10 11 10 10 9 9 10 10 10 11 11 10 10 10 10
56 52 52 47 39 43 40 36 34 34 34 29 36 41 44 46 47 46 43 37 31 25 16 11 8 8 10 11 11 12 11 11 11 12 12 12 12 11 11 11 11 12 11
52 53 54 47 40 43 39 36 35 35 32 36 42 46 46 47 49 47 42 38 35 29 24 16 11 10 12 13 13 12 12 12 13 14 14 14 15 16 16 15 13 12 11
50 53 54 49 40 41 38 36 36 34 35 41 44 46 47 49 50 52 55 54 48 42 32 20 13 13 14 14 14 14 13 14 15 15 15 15 17 18 18 18 16 12 11
54 55 55 52 43 41 38 38 37 36 37 40 43 46 49 50 51 54 58 62 60 52 42 26 17 16 16 15 15 14 15 16 16 16 16 17 18 18 17 16 15 13 14
54 56 56 52 44 40 40 41 40 40 42 42 44 47 50 51 53 55 59 64 66 60 48 28 20 18 17 16 15 16 17 16 18 18 19 19 18 18 20 22 23 22 18
43 44 52 55 44 42 43 44 43 44 45 44 47 51 55 56 56 58 61 66 68 61 42 25 21 19 18 17 17 17 18 18 20 21 20 20 19 20 23 26 27 24 19
40 50 57 56 45 44 45 46 48 49 48 50 53 57 60 61 60 62 64 68 69 55 29 23 20 20 18 18 18 18 20 21 21 21 20 20 23 27 30 30 28 25 20
52 57 58 55 46 45 47 48 50 52 52 56 59 62 65 65 64 64 68 70 62 34 24 22 21 19 19 19 20 21 22 23 23 21 23 29 31 31 32 30 25 21 17
52 51 47 46 46 48 49 49 49 51 54 59 63 66 66 65 66 68 69 64 33 22 22 22 21 21 21 21 22 23 24 25 24 29 34 33 30 27 25 22 19 17 18
54 51 45 44 47 50 51 50 50 52 55 60 66 67 65 66 68 68 63 25 18 22 22 21 22 22 23 24 25 26 25 27 34 34 28 22 19 16 15 18 19 23 25
53 55 60 61 54 52 53 54 54 54 58 64 66 66 66 68 64 57 13 17 23 22 22 23 23 24 27 29 30 30 32 36 33 23 17 12 8 8 12 18 25 34 78
41 50 57 66 65 61 60 60 60 60 62 64 65 66 65 61 43 10 19 22 21 22 24 24 25 29 32 32 32 37 37 30 20 14 8 5 7 11 15 17 26 44 92
37 45 52 61 60 60 61 62 64 63 63 65 66 62 57 22 14 21 20 20 21 23 23 27 31 34 34 35 39 37 30 18 12 8 6 7 9 13 20 37 75 100 99
57 55 59 62 64 65 66 65 65 67 67 64 60 40 18 18 20 19 19 19 21 24 28 32 33 34 39 41 37 29 18 14 10 7 8 13 19 31 47 100 100 78 75
64 65 66 68 70 67 66 67 68 65 62 51 31 17 18 17 18 18 18 21 23 26 28 32 40 43 44 38 28 17 15 12 8 7 11 21 35 52 100 90 72 70 63
68 69 70 72 70 69 68 66 64 57 41 19 16 15 15 17 17 17 22 24 25 25 32 38 43 43 37 27 18 15 10 8 9 13 22 30 44 65 63 68 65 61 61
70 70 71 70 69 69 67 61 46 25 17 15 14 17 18 16 18 23 26 24 25 33 37 38 39 36 29 20 17 11 9 13 19 25 31 42 53 57 60 60 59 63 83
68 68 70 72 69 65 47 29 19 16 16 20 21 16 17 21 24 22 22 28 34 36 38 37 35 32 24 20 13 9 10 19 27 34 36 48 52 55 57 60 79 97 93
71 72 72 60 45 29 22 19 19 23 23 20 18 20 23 24 21 23 28 34 38 39 38 35 33 28 23 15 10 9 15 24 30 35 40 48 53 57 61 90 96 94 94
70 58 48 34 26 22 22 24 24 24 21 21 22 23 21 20 26 31 34 39 43 39 35 33 28 25 19 11 9 16 23 31 36 38 43 47 50 55 83 88 98 97 96
58 47 31 24 24 24 25 26 25 22 21 21 21 19 21 27 30 35 42 46 40 36 34 30 25 18 11 9 15 22 29 35 39 40 46 50 63 85 87 90 92 97 95

GFSMW_700_rhum_003.txt.gz
RH
54 50 45 45 43 43 42 36 30 29 30 29 28 45 43 36 31 32 36 35 34 32 36 47 47 42 29 9 6 9 10 10 11 10 8 8 7 8 8 9 9 9 9
53 49 45 42 42 42 43 34 33 30 29 34 48 43 33 28 32 35 35 31 35 44 49 50 43 26 12 8 9 10 10 11 13 14 14 13 11 10 10 10 10 9 9
62 51 42 47 46 42 38 35 31 31 41 47 43 32 29 32 35 31 32 42 48 52 52 41 26 14 9 8 9 11 13 14 14 14 14 13 13 14 13 13 13 12 11
63 52 49 49 49 49 36 38 36 46 46 37 31 32 35 34 31 39 44 48 52 47 37 28 20 12 9 10 13 16 17 18 17 15 12 12 12 13 16 16 14 12 12
63 60 51 49 51 49 39 46 46 43 34 32 33 35 30 35 41 44 48 45 42 38 33 27 19 13 12 13 16 19 19 19 18 16 14 13 13 14 14 15 13 11 8
58 62 58 62 52 51 42 47 44 37 33 34 34 30 38 44 46 46 46 47 48 48 44 35 24 17 15 16 18 20 20 19 17 14 14 14 14 14 13 12 10 8 7
54 58 60 62 52 52 42 45 40 35 34 34 31 38 45 48 50 50 51 56 58 59 55 46 34 24 17 18 20 22 20 18 16 15 15 15 14 14 13 12 10 8 6
50 57 57 64 53 52 42 44 38 36 35 32 39 44 49 51 52 52 52 54 55 59 60 58 48 30 18 18 21 21 19 17 16 16 16 15 14 14 14 13 11 6 6
53 57 56 56 52 53 43 43 38 37 35 38 44 48 50 51 53 53 54 55 58 60 63 64 54 33 17 19 21 21 18 17 17 16 16 15 15 14 14 15 17 18 10
48 48 57 49 52 52 45 41 40 38 36 43 46 49 50 53 57 58 59 61 63 63 65 67 57 28 16 20 21 19 18 18 18 18 16 16 14 13 14 17 20 24 26
42 42 53 52 55 52 46 41 42 38 39 45 47 51 54 57 61 63 65 66 66 67 68 67 44 16 19 22 20 20 20 19 19 19 18 15 14 16 18 19 20 21 24
38 43 54 55 57 55 45 45 44 41 44 49 51 55 61 64 67 68 68 67 68 68 68 59 17 18 22 20 20 21 20 20 20 19 16 18 19 19 18 18 18 16 13
40 54 59 60 60 56 47 48 46 46 50 54 58 63 68 71 73 72 68 68 69 68 64 20 17 22 21 22 22 22 22 23 21 20 21 22 22 20 18 17 13 8 6
49 58 60 59 64 58 50 51 49 50 55 60 64 69 74 77 76 71 68 69 68 65 21 17 22 21 22 23 22 24 24 22 24 27 24 25 21 18 15 11 6 6 8
48 53 57 63 68 63 54 54 54 55 60 65 69 74 78 78 73 68 68 68 61 18 17 21 21 22 22 22 24 23 23 24 25 25 26 20 18 14 8 6 7 11 16
52 56 61 64 66 62 55 54 56 60 63 67 71 76 76 72 69 67 66 53 13 18 19 20 22 23 23 25 25 25 23 25 26 25 21 19 14 8 6 9 17 29 53
56 59 62 59 54 56 57 58 62 63 65 69 71 70 70 70 68 62 34 13 18 18 20 21 22 25 25 24 23 22 24 28 26 22 20 15 8 8 12 21 30 58 63
59 64 68 70 74 77 77 76 77 78 77 73 71 70 70 67 55 21 16 16 17 19 20 23 24 24 24 21 24 26 27 27 23 20 13 8 9 16 25 36 47 49 58
50 61 73 80 84 87 86 86 81 74 71 70 70 69 62 42 23 16 15 17 18 20 25 25 22 22 24 24 28 29 29 27 24 15 9 10 15 25 33 43 44 47 47
58 67 76 78 81 80 79 76 70 67 68 69 64 54 35 18 15 15 19 18 20 23 22 21 24 26 26 31 31 30 28 25 19 11 8 16 25 31 38 44 44 42 43
64 70 77 78 79 77 74 71 70 69 65 59 44 22 15 15 19 19 19 22 23 21 21 24 28 30 32 32 32 30 26 19 11 8 13 21 28 33 39 44 44 51 76
66 71 75 77 78 76 73 68 67 61 46 25 16 16 21 22 19 20 23 21 19 21 22 22 28 32 33 33 31 26 19 11 8 13 21 26 30 36 41 44 60 84 84
72 74 74 73 71 69 70 65 50 29 18 18 23 24 22 21 22 22 20 21 21 20 22 25 28 31 33 32 27 20 12 8 14 22 26 32 35 39 44 68 86 88 91
70 70 70 72 72 66 47 28 21 22 25 26 25 23 23 22 20 19 19 20 22 23 27 28 30 33 33 29 21 13 8 12 21 26 31 36 40 49 77 88 92 94 94
70 70 70 61 46 32 25 25 26 27 27 26 24 23 22 19 20 20 21 23 27 28 29 34 35 34 29 21 13 9 12 20 28 29 34 38 46 78 83 88 94 96 95
65 60 53 41 27 27 28 27 28 27 24 24 23 20 18 20 20 23 26 31 31 34 38 37 34 28 20 12 9 11 19 29 31 32 38 48 80 83 85 88 91 96 93

GFSMW_700_rhum_006.txt.gz
RH
37 47 62 63 52 43 54 45 43 42 38 36 36 38 35 39 51 41 36 38 41 37 33 44 46 45 38 24 9 8 9 10 12 14 14 14 14 14 13 11 11 11 11
41 52 61 57 52 50 46 42 43 45 40 40 37 39 40 51 44 35 38 40 36 38 47 47 42 33 20 13 10 9 11 14 18 19 19 18 16 15 14 14 13 13 13
39 49 54 55 55 45 44 43 43 42 42 39 40 44 51 46 32 37 38 34 44 46 44 37 29 24 19 13 10 12 16 19 21 21 21 19 18 18 17 17 16 16 16
47 46 50 53 47 46 48 48 46 41 38 38 45 51 43 33 36 35 38 45 46 42 38 33 31 26 19 15 14 16 20 22 23 23 22 22 20 19 18 18 19 18 15
46 60 60 59 45 50 50 51 43 43 37 48 47 38 32 34 34 39 44 48 46 45 49 53 50 39 28 21 18 19 22 24 25 25 23 21 20 18 18 20 17 14 12
47 62 64 64 50 51 52 52 43 48 48 44 35 32 35 34 41 46 48 50 52 53 55 56 55 51 41 30 21 18 21 24 25 23 22 21 20 18 15 15 14 10 8
38 53 63 65 58 58 56 53 44 49 44 36 33 35 34 41 48 51 53 54 52 53 55 55 55 55 54 40 22 15 20 24 24 21 20 19 17 16 15 14 12 8 7
44 45 60 62 61 64 60 53 45 47 40 35 35 34 40 46 52 56 56 54 54 57 59 61 59 58 57 44 16 13 21 23 21 21 20 17 17 17 17 14 10 8 8
46 50 46 52 60 62 63 54 46 44 38 37 35 36 46 50 53 57 57 58 61 63 64 64 63 60 58 42 10 17 22 21 21 21 19 18 20 19 17 16 15 15 10
44 50 53 50 58 64 64 55 46 42 39 38 36 44 48 50 53 56 59 63 66 67 66 66 67 63 60 21 12 21 21 21 22 19 20 22 20 18 17 17 20 20 18
39 42 55 52 60 63 58 54 47 41 40 38 41 46 48 51 54 58 63 68 70 69 68 70 70 65 51 11 18 20 21 23 21 23 23 21 18 17 19 19 19 19 19
21 47 47 48 58 58 59 53 47 41 41 42 46 48 51 54 59 64 70 73 74 72 70 73 68 62 13 17 20 22 24 22 23 24 21 19 18 19 20 20 20 20 15
32 44 48 52 58 58 60 53 46 44 42 44 49 52 56 60 66 71 77 79 76 72 72 70 61 18 18 20 22 24 22 25 26 23 20 19 20 20 20 21 19 12 7
50 48 52 59 64 63 59 55 47 46 44 48 53 57 63 68 72 78 82 79 76 73 70 61 21 18 20 22 24 22 26 27 25 21 21 22 22 21 21 18 11 8 11
52 56 59 63 65 64 62 54 51 49 48 52 57 62 68 74 79 81 79 76 74 70 61 21 18 19 22 23 23 25 25 24 19 22 22 22 21 22 17 10 8 14 20
53 53 64 67 67 67 66 56 54 53 54 57 61 67 75 78 79 77 75 75 70 57 22 17 19 22 23 24 26 26 22 20 22 21 22 22 23 18 10 8 16 25 32
55 59 63 65 69 72 72 59 58 59 60 63 69 75 76 74 73 74 75 68 47 22 17 19 22 22 24 24 24 22 20 21 22 25 25 24 18 10 8 15 20 25 38
62 66 66 69 71 73 74 65 61 63 67 73 76 77 77 75 75 74 62 37 20 17 20 21 22 24 22 23 21 18 20 23 26 27 26 20 11 9 16 18 22 31 35
65 69 73 75 72 68 69 70 71 76 84 85 80 77 75 75 67 50 31 16 17 20 20 23 22 20 22 19 18 21 23 26 28 27 20 11 8 17 22 26 28 30 32
60 69 76 79 81 84 86 88 88 85 80 78 75 73 68 56 39 19 16 20 21 21 23 21 21 20 17 20 24 26 26 28 28 22 12 8 18 22 26 30 31 32 53
51 58 76 83 84 86 86 84 82 80 76 73 67 59 46 24 16 18 22 22 22 21 18 20 20 21 23 25 27 28 30 28 21 12 8 14 22 26 28 34 41 64 70
60 63 72 81 85 85 84 83 77 73 67 63 52 29 18 18 23 23 23 22 18 18 19 17 20 25 28 29 29 29 26 19 10 8 10 21 24 28 34 49 73 75 76
64 68 76 82 83 82 77 72 69 66 54 30 20 21 24 25 25 23 20 17 18 17 15 17 22 25 27 28 26 23 15 7 8 11 20 26 27 33 53 78 81 84 85
69 75 78 78 74 72 71 68 51 28 23 24 25 26 26 24 22 17 17 18 15 15 18 22 23 25 25 24 19 9 5 8 10 16 24 28 34 61 82 84 91 93 92
70 71 72 74 73 67 48 32 25 26 27 27 27 24 23 19 17 17 16 15 17 19 22 25 26 25 22 13 5 6 9 12 18 24 27 31 52 78 84 89 94 94 94
72 74 72 61 49 36 26 28 28 28 27 24 23 19 17 17 16 16 18 19 23 28 31 30 27 20 7 4 6 9 12 20 26 27 31 42 77 84 84 88 91 96 94

GFSMW_700_rhum_012.txt.gz
RH
24 23 27 36 40 45 45 46 46 45 45 46 50 58 56 52 44 42 45 45 44 47 42 46 40 41 38 28 25 23 18 15 13 15 17 20 22 22 22 22 22 21 21
30 25 27 29 34 41 46 46 48 45 44 57 64 64 67 54 47 41 46 48 46 48 43 43 41 39 33 40 48 46 40 28 19 17 20 22 24 24 24 24 23 23 22
29 29 27 29 30 34 36 41 52 49 51 63 66 65 57 54 44 41 47 54 61 47 45 40 41 40 49 50 49 48 48 43 26 16 16 20 24 26 25 26 24 24 23
24 27 27 27 31 34 32 36 60 52 51 62 62 57 55 53 52 51 56 71 52 53 40 45 44 49 48 50 52 50 47 46 34 13 10 15 21 23 23 22 22 22 21
26 26 28 26 29 39 36 36 59 55 52 53 54 59 58 51 54 53 58 50 54 43 46 46 50 50 53 55 56 56 55 50 48 19 10 12 18 23 25 24 23 21 18
26 24 26 28 28 35 40 48 58 56 49 50 53 56 51 52 50 52 46 45 44 47 46 49 51 54 57 59 59 59 59 56 50 29 17 15 20 26 27 25 22 19 16
33 27 31 30 28 29 38 58 57 50 50 51 52 50 50 64 64 50 45 43 47 49 50 51 56 60 62 62 60 60 61 60 48 28 16 18 25 27 25 20 18 15 11
38 35 43 40 31 34 42 56 55 48 50 52 47 47 48 99 51 44 42 47 50 51 53 56 62 65 66 64 62 62 64 63 40 22 17 23 26 23 18 17 14 10 10
32 41 58 61 34 45 50 52 53 49 52 53 48 51 53 98 45 40 41 47 52 55 57 61 66 68 69 68 66 66 66 57 30 17 21 25 22 19 18 13 11 10 12
53 28 47 63 45 54 64 60 59 51 55 55 51 53 80 44 42 41 45 52 56 57 60 64 68 72 74 74 72 69 68 41 20 19 25 22 19 18 13 11 10 11 12
51 38 46 62 52 67 68 68 61 57 62 58 52 53 92 42 41 44 51 55 58 60 63 67 72 76 78 77 75 72 58 26 18 24 22 20 17 13 12 11 11 12 12
64 44 44 57 57 62 68 66 65 67 65 58 50 60 45 42 42 50 55 59 60 62 67 72 76 80 82 79 78 69 36 18 23 22 20 16 13 12 12 12 13 13 14
72 57 34 50 61 52 62 62 64 68 67 58 52 50 44 42 50 55 59 60 63 68 73 77 80 84 84 82 73 44 19 23 22 21 16 13 12 12 13 14 14 15 15
85 64 29 39 59 60 56 58 64 70 72 60 54 50 45 50 54 58 60 63 70 75 79 85 85 86 85 76 46 21 23 23 21 16 14 13 13 15 14 15 16 16 13
94 66 31 38 51 58 62 63 71 72 72 62 56 49 46 54 57 60 63 69 75 81 94 87 88 86 74 42 20 24 23 19 15 15 13 14 16 14 15 16 14 10 6
83 60 33 43 50 67 72 72 74 90 87 75 58 52 71 58 62 64 69 74 82 97 90 91 87 63 36 19 25 23 18 16 14 13 16 14 13 13 10 6 5 6 9
69 41 31 42 62 73 79 80 95 98 95 68 69 86 62 62 66 70 74 83 95 97 94 84 47 27 21 25 22 17 16 13 14 15 13 13 8 3 3 4 5 8 16
77 64 62 65 72 81 86 98 100 100 84 78 65 62 64 68 73 78 85 96 98 93 68 35 21 25 25 21 16 14 13 14 14 13 10 2 2 4 5 5 8 16 22
83 83 85 88 87 87 87 85 76 67 64 64 66 68 73 79 84 92 98 97 80 43 24 22 26 24 18 16 13 13 14 12 12 5 2 4 5 5 6 10 16 19 26
78 75 74 77 78 77 76 73 72 70 70 72 76 79 86 96 98 94 80 50 33 20 26 26 22 17 15 13 13 15 12 11 3 3 5 5 5 7 14 20 21 24 57
81 80 81 82 83 85 85 83 80 78 79 85 97 100 96 90 78 58 42 21 25 27 24 19 17 14 14 15 15 13 11 3 3 6 5 6 7 14 20 23 34 63 68
76 79 82 82 81 86 85 87 94 99 100 98 95 87 74 57 41 22 25 27 25 21 18 16 14 14 16 16 14 11 3 4 6 6 6 7 13 19 23 40 70 71 72
86 89 88 86 89 95 100 100 100 100 97 85 68 56 37 22 25 28 26 22 18 18 15 14 14 17 16 15 12 4 4 6 6 6 7 12 19 24 45 71 73 76 80
78 84 90 95 96 99 100 100 99 85 68 56 36 22 26 28 26 23 19 18 16 15 14 15 16 15 16 13 6 3 6 8 8 8 9 18 25 46 73 78 84 86 85
82 89 98 100 100 100 93 80 67 57 36 24 26 28 26 23 19 18 18 15 15 15 16 16 16 17 15 8 4 5 9 10 10 10 16 22 39 71 76 84 86 87 86
86 89 96 97 83 72 67 55 39 26 27 28 25 22 19 19 19 16 16 15 15 16 17 18 18 17 10 4 5 10 12 11 12 14 21 29 69 76 81 81 84 89 88

GFSMW_700_rhum_015.txt.gz
RH
32 55 24 23 50 40 44 42 47 43 48 48 43 43 42 48 58 57 58 52 46 45 45 45 48 43 39 39 31 36 40 41 41 37 25 16 16 19 22 24 24 24 24
22 28 30 22 23 31 32 35 41 45 45 47 42 44 45 54 59 63 60 52 46 46 46 52 48 44 40 35 43 40 39 38 37 38 34 20 15 16 21 24 25 25 25
18 22 25 29 23 24 27 36 41 45 45 42 41 44 50 58 59 63 62 50 46 50 53 57 53 42 40 45 44 48 49 48 47 44 41 27 13 10 12 16 20 22 24
22 23 25 26 30 25 27 32 33 42 48 41 37 41 48 60 64 61 58 56 51 53 91 63 46 45 45 46 50 54 54 54 54 52 51 45 33 21 17 16 19 23 25
41 39 26 25 25 36 36 29 37 37 42 44 46 49 60 68 61 60 60 56 60 84 94 66 49 46 49 50 55 57 57 57 56 56 56 51 43 25 16 18 24 25 23
47 46 25 26 25 29 48 30 36 38 39 49 53 57 62 63 55 58 55 51 58 99 68 52 51 51 51 55 59 60 58 58 58 59 59 54 41 19 19 25 26 24 21
52 58 51 26 26 27 40 31 35 42 41 50 60 62 60 52 63 61 59 58 66 73 61 51 52 54 55 60 62 61 60 61 61 62 63 56 32 19 25 26 24 21 18
70 64 40 38 29 28 34 30 34 44 47 58 62 54 51 58 56 64 58 90 53 56 50 54 55 56 59 63 64 64 64 64 64 65 66 49 21 23 26 23 20 17 12
62 75 57 41 41 46 38 33 37 46 54 62 59 51 56 58 57 56 87 69 48 48 54 56 60 60 62 65 68 68 68 68 68 68 64 32 21 26 23 20 15 12 11
75 64 57 54 44 57 52 36 44 52 60 62 54 54 56 54 79 85 64 49 46 52 57 62 63 63 65 68 72 74 75 74 73 67 51 21 25 23 20 15 12 11 12
69 52 47 58 39 61 55 40 57 58 63 61 53 56 57 84 71 99 60 48 49 56 60 63 63 65 68 73 78 79 79 77 71 58 23 24 24 20 14 12 11 12 12
56 40 48 58 45 62 54 54 66 67 66 60 56 58 57 88 77 81 50 48 52 58 62 64 64 68 71 80 85 84 83 80 56 25 24 24 19 14 12 12 12 11 8
65 52 43 71 50 53 55 59 71 72 68 59 59 63 61 71 98 80 49 50 55 61 64 64 67 73 81 90 88 88 85 48 25 24 24 18 14 12 12 12 9 8 6
69 53 45 74 51 46 64 63 69 68 69 64 65 62 77 99 91 50 50 56 60 63 64 67 72 80 92 91 92 86 43 23 25 23 17 14 12 13 11 8 7 3 2
65 87 63 81 49 42 64 64 65 66 71 71 72 72 98 90 99 69 70 62 63 64 68 73 79 90 96 96 83 36 22 26 22 16 14 13 13 10 8 4 3 4 4
61 72 73 80 42 47 61 59 63 74 85 79 90 100 99 99 66 68 67 78 71 71 75 80 87 96 96 70 28 24 26 20 15 13 14 13 9 7 3 4 5 5 5
98 79 82 59 30 49 56 62 67 74 94 94 99 100 93 71 69 86 93 82 78 79 82 89 98 97 53 24 26 25 18 15 13 14 12 9 5 3 5 5 5 5 8
98 82 63 36 50 55 72 86 79 87 100 100 100 100 94 83 96 87 86 84 87 86 94 98 90 35 24 27 22 17 15 14 14 11 9 5 4 5 5 5 5 6 14
95 77 53 58 65 88 97 98 99 100 100 100 99 94 96 83 81 83 88 91 96 99 97 55 25 26 26 19 16 14 14 13 11 10 5 4 6 6 5 5 8 14 17
93 77 74 93 100 100 100 100 100 100 98 93 86 78 81 86 91 93 99 100 96 66 33 25 28 22 18 16 15 14 13 11 10 6 4 6 6 6 6 10 16 18 47
100 100 100 100 100 100 99 95 85 75 77 80 86 90 93 100 100 98 92 66 41 25 28 25 19 17 16 15 14 13 12 11 7 4 6 8 7 6 10 18 27 58 63
92 94 90 88 87 85 83 82 81 83 85 85 96 100 99 92 83 65 42 25 27 26 20 18 17 16 15 14 13 12 12 8 5 5 8 8 8 9 18 29 62 68 71
90 88 85 80 81 86 87 88 89 98 100 99 96 91 79 62 38 25 28 26 21 19 18 16 16 15 15 13 12 13 9 5 5 8 10 10 10 16 26 63 68 74 76
90 88 86 89 87 88 93 93 98 99 96 88 70 59 33 26 28 26 21 19 19 17 17 16 15 14 12 13 13 9 6 6 8 11 11 11 13 22 60 70 76 80 85
91 94 94 96 98 99 97 99 96 85 68 55 33 27 28 25 21 19 20 18 18 17 16 15 13 11 13 12 7 6 6 9 11 13 13 12 19 51 70 75 80 85 86
90 97 98 99 99 100 97 79 67 53 33 28 28 25 21 20 21 19 19 18 17 16 15 12 11 13 10 6 6 7 10 12 14 15 14 17 35 71 77 79 84 89 87

GFSMW_700_rhum_018.txt.gz
RH
23 30 32 25 19 29 57 69 70 66 57 47 45 43 45 48 47 43 41 49 58 58 57 49 43 48 50 47 39 36 34 36 34 35 34 33 32 27 19 14 15 17 20
14 16 22 35 29 23 30 62 70 67 50 51 50 52 49 48 44 41 50 54 59 60 60 49 45 52 52 47 40 37 39 40 44 44 45 46 43 42 34 24 17 12 12
10 12 15 17 27 25 28 37 66 71 49 47 52 52 52 48 43 42 51 56 64 68 60 49 47 59 56 44 41 42 42 46 49 50 51 51 51 51 46 42 30 22 19
11 12 16 17 21 23 26 41 41 52 50 47 42 45 50 48 44 47 54 66 72 69 58 55 50 67 58 45 45 46 49 52 52 52 53 52 54 56 54 47 32 21 20
34 33 30 27 35 35 40 30 48 57 50 32 43 44 49 47 43 53 66 73 72 63 59 65 74 89 52 48 49 50 55 56 56 55 54 54 55 58 58 53 34 22 24
38 43 45 43 38 32 43 48 54 65 66 45 39 41 51 47 43 56 69 72 66 64 60 69 95 86 53 52 52 54 59 60 59 57 57 58 58 60 60 52 29 23 24
44 43 44 44 36 40 31 44 64 66 63 47 49 38 43 43 53 61 72 72 67 75 68 78 100 84 54 55 54 58 62 63 62 61 61 61 62 62 62 35 24 25 24
39 44 40 35 40 38 40 40 63 68 69 56 55 46 44 47 60 66 70 74 73 69 82 100 100 67 56 57 57 60 62 64 65 66 66 65 66 65 50 25 26 25 21
46 48 56 45 41 39 36 45 62 65 69 60 54 57 49 51 65 65 69 71 70 66 98 90 89 56 58 60 60 62 64 68 68 68 68 69 67 61 27 26 25 19 14
42 45 62 68 54 52 53 42 70 59 59 51 56 60 52 63 61 66 69 70 86 92 81 62 57 58 62 64 62 63 67 71 72 71 72 72 62 31 26 24 17 13 13
48 52 58 59 52 42 56 50 60 66 64 45 53 58 66 65 64 63 71 73 90 95 57 54 57 62 65 66 66 68 72 76 77 77 78 62 34 26 24 16 14 14 14
61 60 54 38 28 48 59 54 68 76 54 46 54 67 74 67 64 66 73 99 96 61 57 57 61 66 69 69 68 73 77 82 80 82 63 32 26 23 15 14 14 13 9
55 59 71 53 40 41 67 79 84 98 99 47 66 75 74 67 70 98 100 96 98 61 65 66 66 69 70 70 74 78 84 86 86 64 31 26 21 15 14 14 12 8 6
82 66 69 54 40 38 78 88 99 98 70 61 73 80 74 72 82 100 98 97 84 74 83 70 68 70 70 86 92 90 90 91 59 28 27 19 15 15 14 11 8 5 4
87 83 69 45 59 60 99 98 98 86 67 77 81 86 70 99 100 91 100 100 90 89 76 69 70 76 89 88 97 97 96 52 26 26 17 15 15 14 10 8 5 5 5
80 80 72 57 54 100 97 98 93 81 91 84 75 73 68 100 88 100 100 99 98 96 72 74 90 89 88 96 99 97 36 26 23 16 16 15 13 10 8 5 5 5 5
91 72 93 50 68 92 92 88 99 99 93 81 76 82 100 93 100 100 100 96 80 75 88 97 89 89 99 98 82 26 27 19 17 16 15 13 10 8 6 5 5 6 6
92 100 93 72 85 89 66 83 91 80 79 84 97 100 100 100 99 99 86 80 91 95 87 88 94 98 95 37 27 23 18 17 17 15 12 11 9 6 5 6 7 6 7
99 100 99 94 75 58 62 90 97 100 99 100 100 100 100 99 91 99 97 84 83 91 91 97 97 46 26 26 19 18 18 16 14 12 11 9 7 6 6 8 8 7 13
97 96 88 88 96 100 100 100 100 100 100 100 99 98 97 95 98 85 81 86 93 98 94 38 26 28 21 18 18 18 16 14 12 11 9 7 5 6 9 9 8 11 30
89 98 95 99 100 100 100 100 100 100 97 96 93 80 81 93 88 89 96 97 74 44 27 28 22 19 19 19 18 16 13 11 10 8 6 5 7 10 10 10 14 31 58
99 99 100 100 99 99 98 99 97 80 81 85 93 97 96 97 98 88 62 42 27 28 23 20 20 20 19 17 16 12 10 9 6 5 6 8 10 11 11 14 32 63 67
96 98 98 93 90 94 96 94 89 94 100 100 99 100 96 72 59 38 27 28 23 20 20 20 20 18 17 14 10 10 8 5 5 7 9 11 12 13 14 30 67 70 70
98 96 99 99 96 95 96 100 100 100 100 100 88 68 59 33 28 28 22 20 21 22 21 19 18 16 11 10 9 6 5 6 8 10 11 12 14 13 22 64 72 74 74
95 100 100 100 100 100 100 100 100 97 85 70 54 32 28 28 22 21 22 23 22 21 19 17 13 10 9 7 5 5 6 8 9 10 12 15 14 19 60 70 74 77 77
98 100 100 99 100 100 100 96 83 69 53 32 28 28 23 21 24 24 23 22 20 19 15 11 9 8 6 5 5 7 8 10 12 13 15 16 16 56 69 71 74 82 84

GFSMW_700_rhum_021.txt.gz
RH
21 31 28 24 30 24 45 65 73 73 69 54 45 50 53 51 51 50 48 47 45 45 47 56 59 59 51 47 54 52 45 37 37 38 40 42 43 44 44 45 42 38 34
14 19 31 39 35 34 35 46 70 73 72 69 61 56 59 57 54 56 54 48 45 43 48 60 60 61 53 51 56 54 43 40 41 44 46 47 47 47 47 48 49 48 45
13 13 14 17 28 31 33 38 51 71 72 71 65 61 55 59 58 56 52 48 44 42 57 66 70 62 51 53 61 54 42 44 46 49 50 50 49 49 50 50 51 51 49
11 9 7 7 14 20 26 38 50 59 70 70 70 72 57 52 49 54 56 55 49 52 63 74 74 60 56 63 68 51 45 46 49 52 53 53 52 52 53 53 54 54 51
21 20 16 8 7 10 18 27 38 57 61 64 66 69 61 60 53 57 59 57 57 63 71 80 71 64 83 77 71 50 48 48 51 54 55 54 53 54 56 55 57 57 48
26 26 21 13 8 16 20 35 47 44 67 63 64 66 58 47 54 60 59 56 55 67 75 80 73 78 89 88 84 51 51 51 56 58 57 57 58 58 58 57 56 54 49
29 30 28 23 19 16 20 37 50 58 55 66 71 66 59 55 60 68 65 58 58 69 77 77 88 94 93 98 82 54 55 55 59 60 61 62 62 63 62 63 60 57 43
33 34 36 35 32 40 39 35 32 39 58 63 65 74 59 60 70 66 62 55 66 73 84 92 100 94 98 99 88 58 59 58 61 63 66 68 68 66 67 67 63 50 27
36 35 35 35 38 37 33 37 33 36 47 59 78 85 72 65 72 59 61 67 68 79 82 100 100 96 100 100 87 62 64 63 64 66 71 73 73 72 74 66 54 27 26
37 39 40 43 39 44 39 39 52 43 48 53 69 77 74 73 72 68 70 64 74 79 97 99 92 96 99 100 74 65 68 67 67 69 72 75 76 78 71 55 28 25 17
52 46 45 43 41 48 47 47 44 56 65 60 61 79 80 76 62 68 66 75 81 88 93 100 96 100 93 100 66 69 72 71 70 74 75 77 79 78 52 28 24 16 17
67 58 61 60 54 55 47 29 36 40 66 76 68 68 80 69 64 70 79 79 77 99 100 100 100 91 99 77 69 75 74 71 78 81 78 83 83 48 28 22 16 18 16
88 68 56 63 57 49 39 27 40 54 50 64 83 80 74 64 72 78 80 75 95 100 100 100 99 100 98 76 72 74 73 81 82 82 86 89 49 27 20 16 17 15 12
96 88 67 62 74 52 38 40 41 55 56 71 82 80 76 74 78 83 79 97 99 99 96 100 100 100 99 74 75 74 86 95 90 92 93 41 27 18 17 17 14 11 9
91 93 77 72 64 58 44 55 73 70 78 82 94 98 80 86 88 97 98 92 98 100 100 100 100 100 85 75 76 93 98 93 97 96 30 24 17 17 16 13 10 8 7
91 90 94 88 86 68 43 74 92 97 97 99 100 72 86 96 99 88 100 100 99 99 100 99 100 93 74 84 98 96 94 98 81 27 19 18 17 15 12 10 8 7 6
96 93 99 84 82 74 67 99 93 94 100 100 95 88 95 97 100 82 100 100 100 100 99 99 93 95 98 98 93 100 96 32 25 18 18 17 14 12 9 8 6 5 5
87 88 85 86 94 100 99 99 99 100 100 92 96 99 99 100 99 100 100 99 96 98 96 97 100 96 89 97 98 51 27 19 19 19 16 14 10 8 6 4 4 5 7
99 99 99 100 100 100 99 99 100 100 100 100 100 100 100 100 100 99 99 99 94 97 94 94 96 100 100 48 28 21 20 20 18 15 11 9 7 5 4 5 6 8 10
100 97 89 83 83 92 97 100 100 99 100 100 100 98 99 99 99 99 98 90 85 91 99 99 94 34 28 22 20 21 19 17 13 10 8 6 4 4 6 8 9 10 10
99 97 97 97 100 96 99 100 99 99 99 98 99 99 99 99 96 96 94 97 100 98 73 33 27 22 20 21 20 18 15 10 8 6 4 4 6 7 8 10 11 11 24
100 100 100 99 98 96 98 98 98 97 95 96 97 96 99 97 99 100 100 83 49 29 27 22 21 22 21 19 17 11 9 7 5 4 5 6 8 8 10 12 12 27 58
90 93 97 96 96 91 94 95 96 96 98 100 100 100 100 96 75 51 32 28 27 21 21 22 22 20 18 13 10 8 6 4 4 5 7 8 9 12 14 13 29 62 63
94 93 98 97 92 91 92 100 99 99 100 98 83 66 52 33 28 28 24 21 22 23 23 21 20 15 11 8 7 5 4 4 6 7 9 11 12 14 13 29 63 66 69
98 97 96 96 99 99 94 98 99 97 85 59 39 28 29 27 22 22 23 23 24 22 21 17 12 10 8 7 5 4 5 6 7 8 10 13 15 15 30 65 69 71 74
100 100 99 99 98 99 98 98 81 58 38 28 29 27 22 22 24 24 25 24 22 19 14 11 9 8 7 5 4 5 7 7 8 9 11 14 14 34 62 65 68 74 74

GFSMW_700_rhum_024.txt.gz
RH
21 22 22 23 28 40 46 62 71 68 58 54 59 55 52 49 53 48 46 48 53 51 49 47 47 60 65 64 61 54 57 60 51 40 39 41 44 46 46 46 46 46 46
18 22 23 27 29 24 24 21 26 63 72 60 63 77 67 55 61 60 56 56 56 54 51 47 50 62 67 67 65 56 60 62 49 42 42 44 47 48 48 48 48 49 49
12 12 16 18 22 24 28 29 25 66 74 73 70 68 74 71 57 53 56 57 57 55 52 49 51 64 71 70 66 59 66 64 48 45 46 49 50 50 50 48 49 51 51
9 11 13 14 16 20 30 35 40 37 62 70 72 71 71 65 59 60 58 62 64 64 60 52 49 70 80 75 66 71 78 63 50 49 51 54 55 54 52 50 53 56 57
14 13 11 10 10 11 17 28 38 48 50 47 61 70 72 74 74 72 67 65 66 66 64 57 64 76 84 84 70 76 88 62 54 53 55 58 58 56 56 56 59 60 62
22 22 21 18 18 18 13 12 22 45 57 62 59 62 70 71 74 77 70 67 67 65 64 58 62 93 90 85 97 96 88 71 57 57 56 60 60 58 58 58 61 62 63
30 30 29 29 29 27 24 22 17 26 47 60 65 67 67 72 72 80 77 71 66 65 64 60 68 82 93 96 93 98 90 89 59 60 58 61 61 62 64 65 65 63 62
33 33 34 33 35 36 38 37 31 26 43 50 49 60 68 78 80 82 84 70 64 70 68 73 78 89 100 99 97 100 91 98 64 62 63 64 66 65 68 67 65 64 64
35 35 36 35 34 34 34 32 35 40 39 40 38 52 57 66 75 77 81 74 75 78 67 75 88 94 100 99 99 97 100 100 74 66 69 70 68 70 71 71 70 69 66
41 42 40 38 37 39 40 40 43 39 35 29 30 37 45 60 64 72 74 74 82 71 71 79 83 100 88 97 100 92 97 99 77 70 74 72 71 74 78 74 73 76 60
52 54 49 48 70 70 54 46 41 42 37 35 30 34 44 58 66 84 86 83 79 72 83 82 89 97 95 94 85 100 98 98 72 73 76 73 78 84 80 79 83 57 28
89 86 74 65 72 73 70 62 47 45 40 38 35 31 41 58 76 84 90 85 76 75 81 85 90 96 93 100 100 99 100 99 73 76 76 77 87 96 85 87 53 27 18
92 75 87 96 92 65 59 59 57 53 41 28 39 40 50 67 71 89 99 82 72 76 84 94 97 90 98 100 100 100 100 81 75 77 76 90 97 91 92 54 25 18 20
93 78 84 97 95 75 60 58 52 45 39 30 49 61 76 79 69 83 96 71 90 90 99 91 100 100 100 100 100 100 99 79 78 75 92 96 94 94 34 21 19 20 16
93 99 90 98 96 85 76 62 56 48 40 42 69 68 77 83 82 96 79 91 96 100 95 100 100 100 100 100 99 100 90 76 85 97 97 95 80 26 19 20 19 15 10
97 100 88 84 85 89 86 72 66 68 57 59 66 92 97 100 93 95 100 82 99 100 100 100 100 100 100 100 98 95 78 97 99 97 98 39 22 19 20 17 12 9 7
99 96 81 91 98 95 88 86 75 68 72 77 80 98 98 94 100 99 99 100 100 100 100 99 99 99 100 99 97 98 99 96 99 60 25 20 20 18 15 9 8 5 4
98 99 98 100 99 96 96 95 96 97 100 94 99 99 99 98 96 100 100 98 100 100 98 99 98 98 98 99 97 98 99 58 27 20 21 20 16 11 8 5 4 4 6
98 99 99 99 99 99 98 98 98 98 98 98 99 100 100 100 100 100 100 99 99 99 97 98 100 97 95 99 99 45 27 21 21 21 18 12 9 6 4 4 4 6 7
99 100 99 100 95 95 98 100 100 100 100 100 99 100 100 99 99 99 98 98 98 99 98 97 96 97 72 29 26 21 21 21 19 14 9 6 4 4 4 5 6 6 8
99 100 100 98 100 100 96 99 100 99 99 99 99 99 100 100 98 99 98 99 96 97 98 79 36 29 24 21 23 23 20 15 9 7 5 4 4 5 6 7 7 9 9
93 96 100 98 99 98 99 99 98 99 98 99 99 98 98 98 97 98 96 91 73 45 30 27 22 22 23 23 20 15 10 7 6 4 4 4 5 6 7 8 10 11 20
91 94 92 94 88 95 98 97 99 97 98 99 99 99 100 95 77 55 36 29 27 23 22 24 24 23 20 15 11 8 7 6 4 4 5 6 6 7 9 12 12 29 53
88 87 95 92 88 92 88 95 98 99 95 85 69 54 37 29 29 27 23 22 24 24 24 22 20 16 12 9 8 8 6 4 4 5 6 6 6 8 11 13 36 54 52
98 90 97 100 88 90 97 94 83 70 57 38 29 29 27 23 22 24 24 24 24 22 21 17 14 12 10 9 8 6 5 5 5 6 6 5 8 13 15 45 61 60 58
98 98 98 98 99 100 98 74 56 36 29 29 24 23 24 26 26 26 26 24 23 19 16 14 12 10 9 8 7 6 5 6 7 6 4 8 13 17 55 60 64 63 62

GFSMW_700_rhum_027.txt.gz
RH
16 18 19 19 31 30 46 64 68 74 71 69 62 53 44 43 44 52 53 54 53 52 54 56 52 51 52 54 59 66 64 63 61 64 57 44 42 44 47 48 47 47 46
25 25 30 30 26 17 20 42 53 66 73 76 76 72 65 54 52 55 56 58 56 53 52 51 50 51 51 54 65 68 69 65 63 67 56 47 46 49 50 50 50 48 48
17 16 21 28 32 32 25 26 33 39 54 70 74 75 72 66 59 54 51 49 55 56 55 54 55 54 52 60 72 73 73 65 67 69 57 51 50 53 55 54 53 52 52
17 15 12 11 15 20 30 35 42 48 45 45 49 56 67 67 61 54 66 67 60 64 65 65 62 60 58 73 81 77 78 69 75 72 59 54 55 58 57 57 56 58 58
17 15 16 13 13 16 18 21 30 40 51 54 46 47 69 74 75 73 73 73 72 71 70 68 70 67 61 60 100 92 82 74 80 80 61 58 59 61 64 64 64 63 65
22 22 20 20 21 20 19 19 19 22 34 46 56 57 58 69 72 73 75 80 79 74 72 74 69 70 67 67 98 99 97 84 96 83 74 61 61 62 65 67 67 67 69
27 28 27 28 28 29 27 26 26 25 23 24 36 63 67 62 65 66 75 79 81 81 74 73 73 69 70 74 91 100 100 99 98 85 97 66 64 65 65 68 66 64 64
33 33 32 31 30 31 34 39 34 31 30 29 26 37 55 69 69 69 68 78 85 90 87 79 75 68 75 74 78 99 99 97 99 92 98 89 70 71 69 68 67 65 66
39 37 36 36 36 36 36 36 36 36 36 34 34 37 40 52 61 66 68 70 83 96 93 83 80 75 82 84 91 100 99 97 100 96 99 100 83 77 75 72 70 71 70
41 43 48 45 42 43 40 39 39 44 41 39 34 35 38 40 41 48 62 66 72 85 94 83 80 85 85 89 93 98 100 97 96 98 98 100 96 80 78 75 73 74 73
69 69 78 71 61 54 59 64 76 72 60 48 42 36 30 28 26 31 37 60 70 76 85 88 86 91 83 86 89 91 99 99 100 100 98 96 85 83 80 77 75 78 83
93 78 80 73 71 84 72 81 79 73 68 56 50 43 35 39 40 39 41 44 65 72 81 97 91 86 84 96 99 100 99 100 99 100 99 96 96 90 78 76 85 91 88
99 89 90 86 66 69 95 83 84 75 62 62 55 47 35 37 48 51 53 57 67 84 100 97 90 91 100 100 100 100 100 100 100 100 94 97 89 82 84 90 92 89 44
84 77 78 84 64 61 87 97 96 93 69 58 55 51 46 36 50 61 67 69 79 97 99 98 94 98 96 99 100 100 100 100 98 99 96 96 84 90 99 95 77 25 21
90 78 72 80 64 76 87 96 94 75 66 60 49 42 39 39 58 69 77 79 91 95 100 88 100 88 100 100 100 99 100 100 98 98 96 96 98 100 94 34 21 22 20
95 89 65 74 69 79 76 82 89 86 71 57 46 36 36 47 68 73 90 99 97 88 99 96 100 98 100 100 100 99 99 99 98 96 96 98 98 47 22 22 22 16 10
100 96 68 78 79 90 88 87 86 67 58 50 46 46 42 52 74 91 93 100 100 97 89 100 96 100 100 99 99 99 98 97 97 99 97 59 24 21 22 18 12 8 6
83 86 99 95 97 98 96 98 98 98 91 65 63 59 77 80 93 98 100 100 96 99 98 100 100 99 98 98 98 97 96 97 97 55 25 21 22 19 13 9 6 4 4
80 69 85 95 98 97 97 98 99 100 99 94 96 90 98 95 99 99 99 100 99 98 100 99 98 98 99 99 96 97 90 38 25 22 23 20 14 9 7 5 4 4 6
100 99 98 99 100 99 99 99 98 99 100 95 98 98 98 99 98 99 100 100 99 99 98 98 99 98 96 91 64 29 23 22 23 20 15 10 8 6 4 4 5 5 5
98 92 90 98 97 100 100 100 98 98 99 100 98 100 99 99 99 99 99 98 98 99 97 95 83 55 32 24 23 24 23 20 15 10 8 7 5 4 5 5 5 5 5
93 91 91 92 89 92 98 95 96 99 98 98 97 97 98 98 98 98 97 94 85 62 36 28 24 23 25 25 23 20 16 12 10 8 7 5 5 5 5 5 4 5 8
76 83 86 78 81 91 100 100 95 98 100 100 100 100 96 80 60 43 32 29 26 23 24 26 26 25 22 20 16 13 10 9 9 8 6 5 5 5 5 4 7 10 28
89 90 94 86 91 92 80 87 87 81 72 59 47 35 29 29 26 23 24 27 28 28 27 24 22 19 16 14 11 10 9 9 8 7 6 6 6 5 5 10 13 39 42
94 99 95 85 87 93 83 70 59 44 31 29 29 26 23 24 27 29 29 29 27 25 22 19 17 15 12 11 10 10 10 9 8 7 7 7 5 6 12 22 50 51 52
95 100 99 97 91 98 74 57 34 29 29 24 23 26 29 30 30 29 27 25 22 19 18 17 15 14 12 11 11 10 9 8 8 9 9 7 11 14 40 59 63 61 61

GFSMW_700_rhum_030.txt.gz
RH
15 19 19 19 22 37 51 54 58 57 60 61 59 53 43 44 48 51 51 51 52 57 58 62 63 62 62 57 54 53 58 58 62 64 64 61 59 50 44 47 49 50 49
23 25 29 30 26 26 27 35 49 54 61 69 69 72 72 62 62 66 62 58 56 60 63 62 63 57 58 53 52 52 54 59 66 69 65 60 58 53 48 49 52 52 52
19 22 26 32 34 33 33 33 30 30 39 40 64 70 75 76 71 64 59 52 58 60 59 59 62 60 55 56 55 55 57 70 71 73 69 67 63 56 53 52 54 57 56
21 16 16 17 17 19 29 37 38 41 43 36 33 50 67 69 71 74 68 63 49 62 62 62 66 68 62 63 63 60 66 77 83 81 72 72 69 60 56 56 58 59 61
24 23 22 18 17 14 16 18 34 40 49 57 58 50 42 44 56 60 62 68 66 68 80 78 75 73 73 75 72 81 73 82 85 91 81 78 75 65 61 60 62 64 66
23 23 22 22 22 22 21 22 21 25 30 33 38 50 66 63 53 48 52 65 66 71 74 73 76 74 72 71 78 80 81 71 100 87 89 91 86 77 66 65 65 67 68
24 24 24 25 27 27 27 27 27 30 31 33 30 28 31 46 63 69 66 62 70 77 76 76 78 79 75 78 78 81 85 81 88 100 100 99 86 93 86 70 71 70 71
32 31 30 29 30 30 29 31 33 30 30 32 34 37 34 32 27 48 68 71 72 69 71 74 87 88 82 77 79 77 88 86 84 98 98 100 98 94 92 92 80 77 75
42 40 38 37 36 35 35 35 35 36 36 35 35 36 36 36 39 41 49 64 70 73 72 72 84 98 91 85 83 79 88 94 95 100 98 100 100 98 91 94 99 86 79
63 58 52 47 43 42 43 44 40 38 38 38 37 37 39 40 39 38 42 48 56 65 70 70 78 76 100 84 88 87 98 100 100 100 99 100 99 100 98 100 100 95 83
76 59 44 46 53 54 55 61 63 52 46 47 47 52 48 41 40 34 33 37 42 44 62 63 70 82 92 95 95 100 100 92 100 99 100 100 100 100 99 98 91 88 89
92 63 50 47 39 44 42 42 47 72 68 62 72 70 60 49 44 40 38 40 38 36 54 67 76 85 85 99 98 98 100 88 100 87 100 100 100 100 99 99 98 90 81
98 65 55 42 37 35 48 44 40 64 86 86 80 64 65 57 51 50 38 48 54 47 47 60 76 84 90 96 99 100 99 100 89 99 99 98 99 100 98 99 90 88 95
80 62 61 55 30 34 53 49 52 68 99 92 92 78 69 65 58 51 44 42 58 62 63 67 76 84 95 100 99 97 86 98 98 98 100 99 99 100 98 98 97 97 87
67 67 66 44 34 35 50 53 64 65 96 94 98 95 92 71 50 44 38 41 55 68 74 81 88 90 99 100 98 100 100 99 100 100 99 98 99 98 96 99 96 47 22
88 64 66 51 51 46 49 61 66 83 99 98 90 79 71 49 39 39 35 54 65 80 86 100 98 100 98 100 99 100 89 99 100 99 98 98 98 98 98 68 22 23 20
76 57 58 66 72 91 100 100 99 98 95 79 82 72 55 51 45 43 62 82 88 84 86 100 100 98 99 100 100 100 100 98 98 98 98 98 98 81 25 23 20 14 9
96 87 86 79 77 72 97 96 99 97 100 98 77 66 51 54 57 69 86 99 97 99 99 97 100 100 100 100 99 99 99 96 96 98 98 69 25 23 21 15 10 8 6
99 94 87 95 99 91 99 100 100 95 100 99 98 93 97 74 97 98 91 90 98 99 99 99 99 100 99 98 98 99 98 97 76 30 23 25 22 16 11 9 8 6 5
79 76 77 83 86 97 99 100 99 99 99 100 100 99 95 87 100 97 97 98 99 99 99 98 98 98 98 98 98 89 32 25 25 26 23 16 11 9 8 8 6 5 5
82 79 76 79 81 80 83 92 93 98 93 95 98 98 98 98 98 98 98 98 98 98 97 98 97 92 62 31 25 25 26 24 19 15 11 10 9 8 8 7 6 6 5
76 72 75 83 83 83 84 85 92 94 97 97 98 98 98 97 97 97 97 97 94 63 39 28 25 25 27 27 23 20 18 15 13 11 10 10 10 9 7 6 6 6 5
81 78 74 76 75 82 83 90 84 74 77 74 64 56 44 38 32 29 28 26 24 24 27 28 27 24 21 19 18 17 15 14 13 12 10 10 9 8 7 7 6 5 9
87 92 80 75 74 70 68 62 53 40 31 30 30 28 25 24 24 26 28 28 29 28 25 23 20 20 19 18 16 14 13 12 11 10 9 9 8 8 8 6 8 16 38
89 87 93 76 78 77 64 47 31 30 29 26 24 25 28 29 30 30 29 27 25 23 21 21 21 19 17 15 12 10 10 9 9 9 8 9 9 8 8 16 38 42 43
92 100 97 97 83 78 64 37 30 29 24 25 28 30 31 31 30 28 27 25 23 23 23 21 18 15 12 9 8 7 7 8 8 9 10 9 8 14 36 46 48 47 50

GFSMW_700_rhum_033.txt.gz
RH
18 20 18 19 28 41 49 52 53 54 53 54 51 47 49 44 41 45 52 57 54 49 49 55 59 62 61 64 61 61 62 57 54 54 55 58 60 58 56 52 45 45 48
20 22 21 20 18 18 18 24 31 41 52 56 56 57 58 57 57 53 54 57 54 56 54 55 60 59 62 66 67 65 57 54 53 52 57 59 63 60 58 56 49 48 50
26 25 24 26 29 28 26 24 23 22 24 33 50 55 60 61 70 59 52 56 49 55 60 60 62 64 65 66 69 64 57 55 54 54 61 64 65 66 63 59 54 52 52
18 20 21 21 20 22 28 30 30 30 29 28 28 30 35 42 47 56 65 72 73 73 72 61 60 68 68 68 65 66 62 59 56 60 60 76 78 73 69 65 61 57 56
24 26 27 26 24 21 18 16 15 18 31 38 41 48 42 37 36 40 55 68 70 70 75 74 67 57 68 71 63 74 71 72 72 68 68 81 86 86 76 73 67 63 60
29 27 26 24 23 22 22 20 19 16 24 44 48 49 56 54 53 53 57 54 55 58 63 72 74 66 69 86 90 88 93 83 85 84 75 83 97 87 86 88 82 71 66
27 26 25 24 24 25 25 25 26 26 24 30 37 36 33 36 35 37 48 65 66 63 61 60 66 71 69 73 84 85 85 85 85 90 87 100 93 100 90 90 84 89 88
42 39 35 32 30 30 28 29 29 28 28 28 28 28 27 29 30 34 34 34 46 61 69 74 70 72 78 86 87 88 90 86 87 92 96 96 99 99 100 98 88 96 94
38 40 42 42 40 37 35 33 33 34 33 33 35 35 34 34 34 36 36 35 27 36 62 69 75 75 75 82 89 95 93 94 92 89 95 100 100 94 100 100 99 99 98
56 52 49 46 41 41 42 42 41 39 39 40 39 37 38 38 38 37 37 37 39 42 56 67 72 75 74 74 81 93 99 94 98 98 100 99 98 96 100 100 100 100 99
58 52 38 30 25 22 22 27 34 44 53 55 60 59 49 43 46 45 44 43 39 36 42 52 67 74 76 73 74 88 97 92 92 100 100 96 100 99 100 100 100 100 99
63 44 37 29 24 26 20 16 16 16 29 42 51 73 67 70 80 70 59 48 39 35 37 44 48 62 73 75 76 92 95 99 100 93 100 95 100 98 100 97 100 100 99
75 41 31 26 25 20 16 16 18 19 20 23 39 77 87 89 85 82 74 54 58 40 42 43 43 44 67 82 81 96 100 100 98 98 95 100 100 100 99 95 99 99 99
56 40 44 32 24 20 19 19 22 26 29 38 46 64 95 96 90 84 79 80 72 53 41 48 51 47 60 77 88 97 99 97 85 100 100 100 100 100 99 100 98 98 97
75 43 39 43 45 46 42 40 48 51 48 52 57 75 93 89 94 95 90 86 71 53 43 49 56 56 62 88 92 89 84 97 99 100 100 100 100 99 99 100 98 98 97
64 57 38 42 42 45 58 68 67 72 75 78 76 80 80 81 86 77 68 60 52 54 55 62 65 67 75 82 90 99 100 100 100 100 100 99 98 98 99 98 97 97 90
60 63 56 50 54 64 66 77 80 86 78 64 76 70 70 69 63 60 56 58 65 73 78 89 98 80 88 99 100 100 99 98 99 99 98 96 98 98 97 97 81 24 20
68 66 60 60 64 72 82 88 83 82 68 50 63 55 54 53 56 52 58 68 88 97 98 100 100 100 100 99 100 100 100 100 98 99 96 97 98 76 37 23 19 13 9
70 67 65 62 69 77 81 87 83 86 73 77 79 70 93 82 73 91 100 100 100 98 100 94 99 98 99 100 99 98 97 96 96 96 60 28 24 22 17 14 11 8 8
71 69 74 70 67 66 76 87 82 77 81 99 100 100 95 95 99 100 99 99 88 100 99 99 98 97 97 97 98 98 97 47 24 26 23 18 16 14 11 9 9 9 8
69 64 72 77 74 72 77 82 83 84 84 87 95 96 89 96 96 97 96 97 97 97 96 97 97 91 71 45 25 25 26 23 20 17 15 14 12 10 10 10 10 9 7
76 70 66 67 64 66 70 78 80 79 84 84 86 88 90 90 87 88 88 81 61 37 27 25 25 26 26 24 21 19 18 17 16 15 14 13 12 11 10 8 7 6 6
82 85 78 73 67 61 55 50 42 37 33 31 30 29 27 26 25 25 25 26 26 26 25 24 22 20 20 20 20 20 18 15 13 12 11 9 7 6 6 7 6 5 9
89 85 90 78 74 68 54 34 30 30 27 24 24 25 28 29 29 29 28 26 25 24 22 22 22 22 21 18 14 11 8 7 6 5 5 6 6 8 8 6 10 22 32
93 90 94 95 83 76 60 31 30 27 24 26 29 31 32 32 30 28 27 25 23 24 24 25 21 17 13 8 5 4 4 4 4 5 6 8 8 7 8 19 26 30 37
99 97 98 99 94 85 66 33 30 25 25 30 32 33 33 31 30 29 26 26 27 26 23 18 14 9 5 4 3 3 3 3 4 6 7 6 6 14 24 27 35 38 42

GFSMW_700_rhum_036.txt.gz
RH
12 12 12 12 13 16 18 24 35 40 47 47 44 40 36 32 37 47 44 47 57 59 54 53 52 51 52 59 63 63 64 65 60 64 63 57 53 49 51 56 56 53 47
13 14 15 13 13 14 15 18 24 35 39 42 42 40 46 47 42 48 52 54 51 57 63 61 56 56 55 60 63 61 63 62 64 66 60 54 51 46 53 59 58 56 52
17 17 18 20 22 21 19 17 16 17 19 24 30 36 41 40 44 48 53 55 56 56 56 59 57 62 64 60 64 62 64 69 72 67 62 55 51 51 59 63 63 60 56
26 26 26 26 24 22 22 25 28 28 26 25 23 22 21 24 30 46 52 55 60 66 62 55 63 67 64 61 65 66 68 69 66 68 62 59 57 58 59 66 67 65 61
24 23 24 26 25 23 22 21 20 21 21 23 25 28 29 28 28 35 40 44 53 69 74 70 63 66 66 68 68 71 69 69 71 71 69 70 72 68 68 71 75 74 70
28 28 28 26 26 25 23 21 19 18 16 16 15 22 37 44 43 44 47 52 49 48 53 60 66 67 73 71 69 70 66 73 82 79 81 81 90 86 86 89 94 85 78
29 27 26 25 24 23 22 20 20 21 20 18 18 19 34 51 56 58 53 49 44 51 58 63 62 64 63 69 76 76 75 81 96 96 99 99 100 98 93 96 91 95 91
37 36 33 31 31 31 31 31 31 29 28 27 27 26 26 34 44 43 38 35 33 33 39 46 63 70 76 68 73 77 80 86 90 97 98 98 96 98 96 99 100 97 100
43 40 39 39 38 37 37 36 36 35 34 31 32 31 31 32 32 33 36 38 37 34 34 34 43 60 69 71 70 70 77 81 84 90 94 94 92 93 99 100 96 96 97
51 52 50 46 41 36 33 31 31 34 39 40 38 36 35 35 36 38 38 38 40 39 37 36 33 36 60 78 77 73 77 82 92 98 99 97 100 95 100 95 85 100 99
56 53 46 29 23 20 16 15 14 16 18 20 28 41 50 52 51 48 43 43 46 46 42 37 36 43 62 72 80 80 83 83 86 92 97 100 98 99 94 90 98 100 100
61 55 40 26 25 20 17 18 14 14 16 19 20 19 20 27 40 60 73 65 68 63 52 45 39 37 40 48 72 81 77 83 88 95 100 100 97 100 98 98 99 100 100
63 54 34 32 32 26 21 16 14 16 20 24 24 24 27 28 35 76 90 88 85 75 63 47 46 43 42 47 54 69 82 78 78 85 87 100 98 100 100 100 100 100 99
57 54 49 34 39 44 43 43 38 38 48 51 49 41 35 38 48 73 96 89 79 85 80 65 63 56 52 59 54 57 68 84 87 93 95 99 100 100 100 100 100 100 99
56 50 53 47 41 39 41 45 50 54 52 58 61 59 61 57 67 81 87 90 92 86 80 78 79 68 56 58 66 64 65 85 98 99 95 99 100 100 100 98 99 98 96
61 61 59 59 52 48 48 50 53 53 59 40 40 58 56 58 68 70 68 69 71 87 84 92 67 60 57 66 76 84 74 78 98 99 93 100 100 99 99 98 98 97 97
66 60 59 54 52 53 52 57 57 59 46 32 31 44 40 47 50 55 60 55 54 52 56 64 67 79 81 98 100 100 100 100 100 99 100 99 100 97 96 96 97 95 93
62 61 59 56 52 60 64 66 60 56 57 45 39 36 38 39 37 43 43 48 62 72 74 93 96 99 100 99 96 100 100 99 93 98 99 94 91 91 95 98 73 33 23
64 57 59 59 59 57 62 68 65 61 63 75 70 55 46 62 55 42 50 88 97 95 100 98 100 100 97 95 98 98 98 97 95 96 96 98 80 42 26 24 20 14 10
64 58 59 57 65 66 65 67 62 61 68 74 84 79 78 84 99 98 99 100 100 100 99 97 97 96 97 98 96 97 97 92 86 45 27 25 23 18 15 13 12 11 11
70 65 63 60 60 63 63 71 70 71 69 73 76 77 78 81 80 84 89 94 97 97 97 96 97 95 86 78 46 29 26 25 23 20 18 17 16 13 13 12 10 7 6
75 75 75 66 61 57 51 47 47 44 41 40 45 43 40 39 41 45 42 37 32 29 26 26 26 26 24 22 20 19 19 19 19 17 15 13 10 8 5 4 4 5 5
84 84 80 74 69 61 50 32 30 29 27 25 24 25 26 29 30 30 30 28 27 25 23 21 20 20 21 20 19 16 13 10 7 4 3 3 3 3 4 5 5 5 10
88 86 86 86 79 73 56 31 30 27 24 25 29 31 33 32 31 29 27 25 23 22 23 24 23 20 16 12 7 4 3 2 2 2 2 2 3 4 4 5 8 16 21
89 88 92 95 95 90 67 35 30 26 25 29 32 34 33 32 30 29 26 26 26 27 25 21 17 11 7 4 3 2 2 2 2 2 2 3 4 5 5 12 17 23 32
97 99 100 100 98 89 81 53 31 26 26 30 34 34 33 32 31 30 30 30 29 26 22 17 12 7 4 3 2 2 2 2 2 2 3 5 5 7 14 16 24 30 33

GFSMW_700_rhum_039.txt.gz
RH
23 15 9 9 9 9 10 11 17 33 37 44 45 32 34 40 39 39 42 51 52 51 46 53 57 55 54 52 56 54 54 59 61 61 63 65 62 63 59 49 46 52 58
16 10 10 10 10 10 11 11 13 16 22 28 33 34 25 30 37 39 38 46 43 49 52 55 59 65 64 61 57 55 56 60 63 62 65 62 63 63 58 53 50 52 59
13 11 11 11 12 12 13 14 14 14 14 16 20 25 27 19 22 28 29 36 45 53 59 59 62 60 64 68 66 65 64 64 70 67 67 68 67 64 59 57 56 56 57
16 14 14 15 16 16 17 18 19 20 21 22 22 23 24 25 23 23 25 27 39 49 57 60 61 66 63 62 60 64 69 73 71 73 67 68 69 68 62 60 62 62 63
26 27 26 25 23 24 23 22 19 18 18 21 25 28 30 31 31 29 28 29 27 35 56 71 77 74 66 69 70 66 62 68 72 75 76 78 73 72 69 65 65 68 76
26 26 25 25 25 24 23 22 22 21 20 19 18 18 17 16 19 27 38 43 44 40 38 48 60 68 72 70 72 70 68 69 76 73 72 73 76 78 80 85 84 83 84
29 28 27 26 23 22 21 19 18 18 18 18 17 17 17 17 17 19 34 48 53 56 55 56 53 52 55 60 68 72 69 66 73 77 73 77 83 83 97 99 94 93 84
32 32 30 28 26 27 28 28 30 30 28 28 28 27 26 24 24 24 31 46 60 64 64 58 57 56 60 66 66 66 68 67 70 84 81 80 88 95 94 93 100 100 96
33 30 33 36 37 37 36 34 34 34 34 36 38 39 35 31 30 30 31 33 38 39 39 41 35 36 39 46 58 68 71 70 73 76 91 92 91 97 100 100 100 100 99
44 47 48 46 43 39 32 26 22 20 20 23 28 38 44 40 36 35 35 37 37 39 43 42 44 44 42 40 38 45 65 75 74 74 78 84 89 98 100 100 99 98 99
61 55 50 46 40 26 20 18 13 12 14 15 16 19 21 28 40 48 48 44 42 42 42 44 47 51 51 49 49 48 57 62 69 79 80 80 87 94 100 100 92 92 100
59 52 49 45 32 27 27 24 18 14 13 13 14 17 20 22 22 22 23 26 31 46 70 64 60 59 55 51 50 48 50 68 77 82 86 91 91 93 94 90 100 100 100
60 54 51 47 42 34 36 37 36 36 32 32 36 45 47 44 42 35 31 38 49 61 72 84 80 77 74 74 58 55 48 48 57 73 87 94 93 95 93 94 95 100 100
58 54 51 49 46 37 34 36 39 42 41 41 47 52 54 54 52 49 48 48 51 75 86 81 81 88 94 83 83 64 60 54 53 59 71 87 91 96 91 90 99 100 100
58 59 57 53 49 44 40 41 43 42 46 46 49 32 27 24 32 41 46 50 58 77 88 87 82 82 87 85 80 77 71 68 74 64 63 76 95 100 98 100 100 99 100
58 58 54 51 48 44 46 48 48 51 52 50 30 16 14 17 30 43 49 55 58 60 57 53 57 72 91 92 73 74 79 89 67 88 86 95 100 90 99 99 87 100 96
62 54 56 56 47 50 57 59 57 53 48 44 41 19 17 22 32 36 40 43 37 36 37 40 49 59 78 76 81 86 90 100 100 100 93 95 100 99 100 100 98 95 98
61 56 55 53 51 51 56 60 56 54 52 56 55 31 24 24 26 27 29 30 34 40 55 71 72 90 88 99 90 96 97 99 100 100 98 99 94 99 99 91 90 95 78
63 57 54 54 53 58 58 54 53 54 57 59 58 49 57 64 70 62 54 55 70 78 86 80 86 96 100 94 98 97 98 100 99 98 97 98 97 89 76 41 28 23 19
68 61 58 56 53 53 54 54 54 58 57 58 59 58 57 59 63 67 74 96 97 97 95 93 85 89 93 93 96 96 96 96 94 91 47 28 25 22 19 17 16 14 13
72 69 66 62 56 52 48 44 43 44 44 49 46 37 33 41 55 63 72 76 80 83 81 69 53 41 36 31 28 25 24 22 20 20 19 19 18 15 11 8 6 4 4
79 77 75 72 64 60 52 36 30 29 28 26 24 24 25 27 28 29 29 29 29 28 27 25 23 22 22 22 22 21 18 15 11 8 5 4 3 3 2 2 3 3 4
86 85 79 81 75 68 61 37 29 28 24 24 26 30 32 32 32 30 28 27 25 24 24 25 26 24 20 15 10 6 4 3 2 2 2 2 2 2 2 2 4 4 5
94 91 85 85 85 76 70 51 31 28 24 26 30 32 33 32 31 30 28 26 26 28 28 25 20 16 10 7 5 3 2 2 2 2 2 2 2 2 3 4 4 7 14
97 96 86 90 86 87 84 68 36 30 25 28 31 33 34 33 32 30 29 30 31 29 26 23 19 14 10 7 4 3 2 2 2 2 2 2 2 3 4 5 9 15 20
99 96 93 100 100 96 90 81 56 32 26 27 32 34 34 33 33 33 35 35 32 30 28 25 21 16 12 7 4 3 2 2 2 2 2 2 3 4 5 10 16 23 33

GFSMW_700_rhum_045.txt.gz
RH
41 35 34 31 28 26 23 19 18 18 15 12 12 12 16 30 50 55 54 52 51 48 47 44 43 47 42 45 58 58 54 52 66 69 63 64 63 59 58 59 63 63 69
36 30 26 26 28 25 23 21 18 15 13 12 13 13 11 10 12 20 38 54 60 54 48 42 38 45 48 50 50 51 58 61 64 68 78 75 68 62 60 65 68 68 68
24 20 18 17 16 16 18 18 15 12 12 12 12 13 12 12 12 13 14 16 20 30 48 46 45 48 49 50 54 56 60 63 66 70 73 78 74 70 68 69 70 70 71
19 17 14 13 12 14 14 12 12 12 12 14 14 14 16 17 17 16 18 19 21 23 25 32 34 32 39 43 49 54 59 73 68 67 71 75 77 77 75 72 74 73 74
15 19 18 16 13 13 14 13 13 14 15 17 18 19 18 18 19 22 21 21 21 23 27 31 37 41 41 43 40 42 58 66 79 74 75 81 79 77 79 78 72 74 76
16 16 19 18 18 19 20 20 21 21 21 21 21 20 19 18 17 17 18 18 18 16 14 14 15 26 39 46 53 56 59 57 66 64 66 73 83 83 81 80 82 84 88
25 23 27 27 26 25 24 23 21 20 19 17 16 16 15 14 14 15 17 18 19 20 19 19 21 70 52 55 63 62 67 72 74 77 77 99 81 91 83 86 83 83 86
31 28 26 25 25 23 22 20 19 18 17 16 17 16 16 17 19 23 28 30 33 33 32 31 30 28 30 38 50 56 58 63 68 76 82 98 99 99 97 98 99 98 95
28 28 29 29 28 25 22 20 20 21 25 27 27 28 28 28 28 29 31 35 40 41 41 38 36 36 35 34 36 55 44 40 41 50 54 63 65 72 82 73 97 98 98
32 31 32 29 26 26 31 32 33 33 32 26 20 17 15 13 12 13 14 18 20 26 33 40 42 41 42 42 42 42 42 43 45 50 62 67 75 76 84 83 99 100 100
35 35 39 41 42 45 42 38 35 34 26 22 22 19 14 11 11 13 16 19 23 25 26 28 28 29 31 37 46 54 58 61 66 60 58 58 66 80 79 82 91 99 100
48 56 56 52 50 45 39 38 37 31 28 28 30 30 27 22 24 32 40 44 45 44 43 40 35 33 34 35 37 42 53 73 74 69 71 69 75 80 82 84 81 89 99
62 62 60 51 47 46 44 40 37 36 31 33 36 37 36 33 35 43 44 41 45 31 26 28 28 31 30 30 34 52 64 73 79 81 70 84 91 88 93 88 96 90 85
64 63 57 50 49 46 43 41 40 40 36 35 34 36 41 41 41 37 18 22 22 21 24 28 27 25 28 31 33 40 44 51 69 80 83 84 88 81 83 86 95 89 90
66 65 56 51 51 48 42 41 42 41 40 40 40 43 42 42 29 17 19 17 18 20 21 25 23 21 26 28 33 39 43 46 55 72 86 80 75 78 94 78 99 99 100
69 67 57 52 51 46 43 41 45 47 49 48 48 44 40 40 20 21 17 16 19 20 18 18 20 22 23 25 31 37 44 51 56 71 71 87 84 77 84 95 99 100 100
72 70 56 53 51 49 48 46 45 45 45 46 45 44 45 29 21 22 22 24 22 21 23 26 30 35 50 54 57 64 66 72 77 83 85 93 93 90 99 97 94 98 91
74 69 59 53 50 51 46 41 42 42 42 44 46 43 41 43 45 50 54 55 39 33 52 58 61 55 46 41 52 65 76 82 76 69 85 92 95 92 81 78 79 82 74
77 68 60 54 53 50 46 42 39 37 47 48 45 43 42 38 34 42 46 52 54 54 57 54 39 27 24 24 23 23 22 21 19 17 17 18 19 21 19 17 16 15 13
78 68 62 58 58 53 49 43 33 30 29 26 23 21 23 23 24 25 27 31 33 31 29 27 25 24 24 23 19 11 7 5 4 3 3 2 2 2 2 2 2 2 2
77 71 69 65 65 60 56 47 32 27 25 23 22 23 26 28 29 29 29 29 27 25 24 24 26 24 20 15 11 9 7 6 5 4 3 3 2 2 2 2 2 2 2
80 76 75 72 72 71 64 55 38 30 26 23 23 26 28 30 30 29 28 27 26 26 27 27 24 21 19 17 16 14 12 9 7 6 5 4 4 3 3 2 2 2 2
84 87 86 83 83 78 73 64 50 34 28 25 25 28 30 31 31 31 29 28 29 30 29 27 26 26 26 25 24 22 19 14 8 7 6 6 4 3 3 3 3 3 3
95 95 97 98 95 83 80 75 65 46 33 27 26 28 31 32 32 32 31 32 34 34 33 32 33 34 35 35 33 30 25 17 10 7 7 5 3 3 3 3 3 3 4
94 98 100 99 98 95 86 83 84 69 47 33 28 28 30 32 33 33 34 36 37 36 37 38 39 40 41 40 39 33 26 15 8 7 6 4 4 4 4 4 3 4 6
93 90 95 100 99 99 99 90 93 91 74 51 34 28 29 32 33 34 36 37 37 35 36 38 40 40 41 42 41 34 23 11 6 6 4 5 5 5 5 4 5 7 12

GFSMW_700_rhum_048.txt.gz
RH
33 29 30 32 37 31 31 30 26 22 20 19 18 17 17 23 31 39 47 45 47 44 46 45 47 52 49 49 52 50 47 50 53 57 55 59 70 70 66 65 62 60 65
37 36 33 35 38 35 34 34 30 27 24 22 19 15 12 11 13 17 29 38 46 45 44 48 46 43 42 44 48 58 59 56 58 60 64 66 66 62 65 76 73 70 70
34 33 35 40 38 33 29 27 28 29 26 23 18 14 11 9 9 10 12 14 18 21 27 36 34 29 26 25 29 40 56 57 63 67 72 77 72 69 69 71 74 76 78
31 29 30 27 25 23 20 19 22 22 20 16 14 13 13 12 12 11 12 13 15 18 20 23 26 29 30 28 28 32 37 44 50 64 66 72 82 84 78 73 75 76 75
30 28 23 22 22 18 16 16 16 14 13 13 12 13 14 15 16 16 15 16 17 18 19 23 28 33 43 48 46 44 50 52 54 53 59 89 79 77 82 80 86 87 84
28 27 22 16 14 15 16 15 14 14 14 15 16 16 16 16 17 17 18 17 16 16 14 14 16 18 18 21 61 52 52 52 68 72 63 62 68 94 98 93 95 85 81
31 29 22 19 18 17 18 20 20 19 20 20 20 19 18 18 18 17 16 15 15 15 17 17 17 19 21 24 46 76 74 64 73 77 73 69 68 73 85 81 91 95 97
36 30 26 25 27 26 24 23 21 19 18 17 16 16 15 15 15 16 16 17 21 26 30 34 35 35 35 33 31 33 35 42 46 52 57 49 47 52 57 67 80 83 74
34 33 32 30 27 25 23 22 21 20 19 17 17 17 20 22 25 25 26 27 28 27 29 33 38 41 42 40 38 37 37 37 38 41 43 44 48 52 59 67 69 75 80
31 30 29 30 29 26 25 23 21 22 25 29 31 30 28 22 17 15 12 11 11 13 14 17 21 28 33 36 39 41 41 40 42 42 43 42 48 57 60 64 67 78 92
33 32 31 30 28 27 30 32 35 36 36 33 32 26 20 20 19 15 12 12 15 18 24 28 31 33 33 32 31 31 31 31 30 32 38 42 53 62 65 66 70 74 80
39 37 39 42 47 50 49 43 38 36 34 33 29 26 27 28 27 25 23 26 35 39 41 43 43 39 31 29 28 26 23 24 33 39 47 60 75 79 69 76 90 92 93
41 52 57 58 60 55 48 44 41 38 36 34 32 29 33 35 35 34 33 35 40 38 39 34 21 21 25 29 27 25 23 29 35 39 43 55 63 71 76 78 80 78 82
53 63 64 65 59 51 47 44 41 38 39 40 38 34 34 35 37 39 41 40 21 23 20 15 18 25 24 23 23 22 24 32 40 38 40 45 47 57 65 76 76 75 86
55 69 67 64 53 50 48 44 40 40 42 41 43 42 41 41 42 45 32 19 20 16 14 16 20 18 18 20 21 22 27 33 38 45 44 54 57 61 74 78 78 80 88
51 70 69 64 53 50 47 46 44 45 47 47 48 47 47 45 41 35 21 19 16 17 17 19 19 22 25 26 40 47 53 60 58 58 57 61 65 73 72 71 86 97 93
48 70 71 64 55 51 50 47 44 43 44 45 47 49 47 44 34 25 25 26 29 32 22 27 38 42 52 47 42 46 58 64 63 42 38 62 69 71 74 58 54 75 87
52 73 73 64 56 52 50 46 42 42 41 43 45 45 42 43 44 43 44 50 52 41 41 51 58 46 30 22 22 21 19 15 12 8 5 6 7 19 25 14 10 11 13
58 76 74 65 57 54 50 46 43 38 37 43 45 44 41 31 28 35 41 49 50 47 44 39 30 24 23 23 20 13 9 7 6 5 4 4 3 3 2 2 2 2 2
79 79 73 65 61 57 51 49 39 30 31 25 23 22 22 23 24 25 25 26 27 27 27 25 23 24 24 18 14 11 10 10 10 9 8 6 5 4 4 4 3 3 3
80 84 74 69 66 63 58 54 42 29 26 24 22 22 25 28 28 28 27 27 26 24 24 25 25 23 21 19 18 19 19 18 16 14 11 9 8 8 8 6 4 4 3
82 85 76 75 74 74 68 62 52 32 28 24 22 25 28 29 29 29 28 27 26 26 27 28 26 25 25 26 26 27 28 27 26 21 15 12 13 12 9 5 4 3 3
80 86 82 82 82 82 76 73 64 45 33 27 24 26 28 29 30 30 30 29 29 30 31 30 30 31 33 35 35 36 36 35 30 23 15 12 13 10 5 4 4 4 4
88 96 97 97 98 96 85 79 76 64 46 33 28 26 28 29 30 32 32 31 33 35 36 35 36 36 37 38 38 39 39 37 31 23 14 12 9 5 4 5 5 5 5
98 98 100 100 98 98 98 95 83 80 68 52 35 28 28 30 32 32 33 34 36 37 36 35 35 36 37 37 38 40 42 36 25 14 10 8 5 5 6 6 6 7 7
94 98 98 98 100 100 100 100 93 90 87 74 56 40 30 29 31 33 33 34 36 37 35 34 35 36 36 36 38 45 42 31 18 10 8 6 6 7 8 8 10 10 11

GFSMW_700_rhum_051.txt.gz
RH
57 55 42 38 33 31 27 25 26 26 25 23 22 22 22 22 20 20 22 24 29 39 48 48 49 51 51 48 48 46 43 43 50 53 50 55 57 53 53 63 66 71 75
50 46 37 35 36 32 27 26 29 31 31 29 26 24 21 19 18 16 14 16 19 22 27 37 43 46 41 43 45 41 40 44 48 60 71 71 66 62 64 66 71 69 73
44 42 41 40 39 37 32 32 33 34 33 30 29 27 24 21 18 15 13 13 13 14 16 33 30 35 36 26 23 21 21 30 31 33 56 64 58 60 66 65 68 75 75
40 40 37 37 40 44 43 37 31 26 23 22 23 21 18 17 15 13 12 12 14 15 17 18 20 23 25 26 27 27 29 32 36 42 41 45 53 60 55 58 70 75 81
44 42 39 37 38 39 37 31 26 22 20 18 16 15 14 13 13 12 12 14 17 19 20 22 22 23 26 31 35 42 42 39 39 43 48 50 52 62 64 63 61 67 88
46 46 42 37 33 32 30 28 23 18 16 15 13 13 13 14 16 17 18 19 20 21 20 18 18 18 19 20 22 28 34 54 54 60 62 64 70 71 78 76 73 70 77
34 40 40 35 34 31 28 20 16 15 14 15 17 18 19 20 21 21 21 21 20 19 18 16 15 15 18 21 23 26 28 36 55 79 85 78 81 78 61 60 56 52 53
26 32 34 31 28 29 26 19 18 20 22 22 22 21 20 19 18 18 17 17 17 18 18 19 22 26 29 33 36 37 37 36 36 38 38 39 44 46 46 48 50 52 55
26 32 34 37 37 30 28 29 27 25 22 21 20 19 18 17 18 19 22 24 25 26 27 27 27 27 30 33 39 40 40 40 40 40 39 39 39 44 43 50 54 57 58
34 39 42 39 35 33 30 28 26 24 22 20 20 19 20 25 29 29 24 19 16 13 11 11 12 14 18 21 25 30 34 37 38 36 32 29 30 31 31 35 50 60 66
35 33 35 36 34 32 30 28 28 26 26 29 31 32 32 32 29 23 21 20 16 13 13 16 22 29 33 35 36 36 35 33 30 26 26 26 29 32 38 43 52 63 59
42 38 34 33 33 34 37 40 42 41 40 37 36 35 35 32 27 27 29 29 25 25 28 36 41 43 42 42 31 24 25 24 22 21 21 29 30 35 40 44 52 57 65
45 38 35 37 44 54 56 53 47 43 40 39 39 37 37 34 30 33 37 38 37 35 37 41 34 35 24 17 19 21 20 20 22 22 32 35 33 37 43 43 45 55 66
50 45 50 54 63 64 59 52 47 43 41 40 38 39 39 38 32 35 36 38 41 42 31 21 22 16 16 18 15 15 17 17 19 26 32 42 41 39 50 52 53 53 65
48 51 55 70 69 66 55 50 47 43 42 39 41 41 41 43 41 41 41 42 37 23 20 18 16 16 15 15 15 14 17 28 34 38 43 51 50 47 55 57 56 60 67
51 53 58 72 69 64 54 51 48 46 46 45 46 46 44 45 46 46 42 37 23 20 18 18 18 22 24 30 34 40 37 40 50 56 54 44 56 58 56 58 40 32 29
53 55 48 68 72 65 54 50 48 42 42 42 44 48 47 46 44 41 32 24 24 24 29 28 25 38 46 48 32 21 22 23 34 19 10 6 4 7 8 17 10 4 3
56 54 52 63 74 67 56 51 47 42 41 42 43 46 47 43 39 40 42 44 48 49 41 40 51 52 41 25 21 20 14 10 8 7 6 6 6 5 4 4 4 4 3
60 55 51 70 77 67 58 53 46 42 37 42 43 43 44 40 30 33 38 42 46 45 50 46 36 27 23 22 21 16 14 12 11 12 13 12 10 8 7 7 7 8 7
60 56 61 79 79 64 60 53 48 40 33 31 27 28 24 24 28 26 25 30 35 32 28 26 24 23 24 22 19 17 17 19 20 21 20 19 16 14 14 14 14 11 8
61 57 79 83 76 68 65 58 54 42 29 25 23 22 24 26 27 27 27 27 27 25 24 23 24 25 23 22 23 24 25 27 29 31 31 28 24 19 18 18 13 8 4
67 86 88 90 76 75 72 67 61 48 35 27 24 23 27 28 28 28 28 28 27 26 26 27 28 27 27 28 30 32 34 36 36 35 34 32 27 20 18 14 8 4 4
95 91 89 90 82 82 80 77 74 61 47 34 27 24 26 28 29 29 30 29 29 29 30 32 32 33 34 35 34 34 35 36 37 37 36 31 21 16 12 7 5 5 5
94 89 88 97 90 92 91 87 78 75 62 48 33 27 27 28 28 30 31 31 31 32 34 35 35 34 33 32 34 35 36 36 39 40 34 24 15 11 7 5 5 6 7
98 98 96 99 100 100 99 93 95 86 78 67 48 35 29 28 29 30 30 31 32 33 35 36 34 32 32 34 34 35 37 41 43 36 26 14 10 8 6 6 7 9 12
89 91 97 99 99 99 98 97 98 95 87 88 76 57 42 33 30 30 31 32 32 33 35 36 34 32 33 34 34 36 38 45 44 34 20 11 8 7 7 8 10 15 18